Tracking 21092 objects as of 14-Aug-2020
HD Live streaming from Space Station
objects crossing your sky now
Track the most recent launched group of Starlink satellites

IRIDIUM 33 DEB

Track IRIDIUM 33 DEB now!
10-day predictions


NORAD ID: 35922
Int'l Code: 1997-051UF
Perigee: 697.0 km
Apogee: 736.1 km
Inclination: 86.4 °
Period: 99.0 minutes
Semi major axis: 7087 km
RCS: 0.0104 m2 (small)
Launch date: September 14, 1997
Source: United States (US)
Launch site: TYURATAM MISSILE AND SPACE COMPLEX (TTMTR)

Note: This is SATELLITE DEBRIS
aabbcc
Your satellite tracking list
Your tracking list is empty




NASA's NSSDC Master Catalog

Two Line Element Set (TLE):
1 35922U 97051UF  20224.47958057 +.00000842 +00000-0 +18976-3 0  9996
2 35922 086.3924 133.6029 0027553 264.0354 095.7713 14.54992371367963
Source of the keplerian elements: AFSPC